TIANTONG-1 2

Last updated on Tue Sep 22 2026 00:03:15 GMT+0000 (Coordinated Universal Time)

1 46916U 20082A 26264.58509778 -.00000359 00000+0 00000+0 0 9993 2 46916 0.7050 343.3591 0000925 243.9843 108.6681 1.00268582 21619
UTC large
Height (km)
Speed (km/s)
/
Latitude / Longitude
Inclination (degrees)
Orbital Period (minutes)
Azimuth
Elevation
Range (km)
Doppler Factor

Next 0 passes for location: London (51.5072 / 0.1276)

No passes found over London.
TIANTONG-1 2